EW6193 Weather Reports


Display with metric or nautical units.
time (UTC)temp
F
wind
direction
speed
MPH
gust
MPH
rain 1hr
in
rain 24hr
in
rain mn
in
humidity
%
barometer
mb
20260505084557 53 272 5.0 11.0 0.00 0.00 0.00 78 1027.5
20260505083058 53 266 5.0 9.0 0.00 0.00 0.00 79 1027.4
20260505081608 52 249 3.0 6.0 0.00 0.00 0.00 80 1027.5
20260505080106 51 235 2.0 4.0 0.00 0.00 0.00 81 1027.5
20260505074554 52 248 0.0 3.0 0.00 0.00 0.00 77 1027.4
20260505073054 52 242 1.0 3.0 0.00 0.00 0.00 77 1027.4
20260505071556 53 252 2.0 6.0 0.00 0.00 0.00 77 1027.4
20260505070053 53 247 0.0 0.0 0.00 0.00 0.00 74 1027.5
20260505064547 54 264 1.0 5.0 0.00 0.00 0.00 73 1027.4
20260505063043 55 263 4.0 9.0 0.00 0.00 0.00 72 1027.2
20260505061540 55 263 5.0 8.0 0.00 0.00 0.00 72 1027.1
20260505060039 56 236 5.0 11.0 0.00 0.00 0.00 71 1026.9
20260505054551 56 228 3.0 10.0 0.00 0.00 0.00 71 1027.0
20260505053053 56 243 3.0 8.0 0.00 0.00 0.00 69 1026.8
20260505051541 57 268 3.0 7.0 0.00 0.00 0.00 68 1026.8
20260505041533 61 293 3.0 8.0 0.00 0.00 0.00 62 1027.1
20260505040040 62 257 2.0 7.0 0.00 0.00 0.00 62 1027.0
20260505034532 62 302 4.0 7.0 0.00 0.00 0.00 60 1027.1
20260505033039 62 262 3.0 8.0 0.00 0.00 0.00 60 1027.0
20260505031529 63 275 2.0 6.0 0.00 0.00 0.00 60 1027.2
20260505030028 62 271 3.0 11.0 0.00 0.00 0.00 60 1027.2
20260505024526 63 238 4.0 9.0 0.00 0.00 0.00 60 1027.2
20260505023026 63 283 5.0 10.0 0.00 0.00 0.00 60 1027.3
20260505021525 63 271 4.0 11.0 0.00 0.00 0.00 59 1027.4
20260505020022 62 341 6.0 11.0 0.00 0.00 0.00 59 1027.5
20260505014518 62 252 6.0 11.0 0.00 0.00 0.00 61 1027.7
20260505013017 62 280 6.0 13.0 0.00 0.00 0.00 60 1027.8
20260505011515 62 247 4.0 11.0 0.00 0.00 0.00 61 1028.2
20260505010013 62 269 4.0 10.0 0.00 0.00 0.00 62 1028.4
20260505004510 62 269 3.0 11.0 0.00 0.00 0.00 64 1028.6
20260505003007 61 248 4.0 9.0 0.00 0.00 0.00 62 1028.9
20260505001505 61 275 4.0 14.0 0.00 0.00 0.00 63 1029.2
20260505000001 61 276 3.0 9.0 0.00 0.00 0.00 65 1029.4
20260504234558 60 338 3.0 8.0 0.00 0.00 0.00 65 1029.6
20260504233055 59 238 2.0 7.0 0.00 0.00 0.00 67 1029.8
20260504231550 59 260 2.0 7.0 0.00 0.00 0.00 65 1030.0
20260504230048 58 251 1.0 4.0 0.00 0.00 0.00 67 1030.1
20260504224548 57 252 1.0 5.0 0.00 0.00 0.00 68 1030.2
20260504223040 56 251 2.0 6.0 0.00 0.00 0.00 69 1030.2
20260504221538 55 240 1.0 5.0 0.00 0.00 0.00 72 1030.3
20260504220033 54 245 2.0 4.0 0.00 0.00 0.00 74 1030.4
20260504214530 53 248 0.0 3.0 0.00 0.00 0.00 76 1030.4
20260504213026 52 249 1.0 3.0 0.00 0.00 0.00 76 1030.5
20260504211522 51 248 1.0 4.0 0.00 0.00 0.00 77 1030.5
20260504210020 48 246 1.0 3.0 0.00 0.00 0.00 80 1030.6
20260504204515 47 272 1.0 3.0 0.00 0.00 0.00 83 1030.6
20260504203012 45 238 1.0 4.0 0.00 0.00 0.00 87 1030.6
20260504201507 44 266 0.0 3.0 0.00 0.00 0.00 89 1030.5
20260504200008 42 241 0.0 1.0 0.00 0.00 0.00 90 1030.4
20260504194506 41 240 0.0 2.0 0.00 0.00 0.00 90 1030.4
20260504193005 41 252 0.0 1.0 0.00 0.00 0.00 91 1030.3
20260504191517 41 250 0.0 2.0 0.00 0.00 0.00 92 1030.3
20260504190004 41 248 0.0 3.0 0.00 0.00 0.00 92 1030.2
20260504184511 40 249 1.0 3.0 0.00 0.00 0.00 93 1030.2
20260504183003 39 238 0.0 4.0 0.00 0.00 0.00 92 1030.2
20260504181501 39 240 2.0 4.0 0.00 0.00 0.00 92 1030.2
20260504180059 39 246 1.0 3.0 0.00 0.00 0.00 92 1030.1
20260504174606 39 241 1.0 5.0 0.00 0.00 0.00 91 1030.2
20260504173100 40 250 0.0 3.0 0.00 0.00 0.00 91 1030.2
20260504171550 41 256 0.0 5.0 0.00 0.00 0.00 91 1030.2